Temperature
-12 -13 -13 -13 -13 -13 -13 -13 -13 -12 -12 -11 -11 -11 -10 -9 -8 -8 -7 -7 -6 -6 -5 -4 -2 -1 0 1 2 3 3 4 5 6 7 7 8 9 9 9 9 9 10
-13 -13 -13 -13 -13 -13 -13 -13 -13 -13 -12 -12 -12 -11 -11 -10 -8 -8 -7 -7 -6 -6 -6 -4 -2 -1 -0 0 1 2 3 3 4 5 6 6 7 8 8 9 8 8 9
-13 -13 -13 -13 -13 -14 -14 -14 -13 -13 -13 -12 -12 -12 -11 -10 -8 -8 -7 -7 -6 -6 -6 -5 -4 -2 -1 -1 0 1 2 3 3 4 5 5 7 7 7 7 7 7 8
-13 -13 -13 -14 -14 -14 -14 -14 -14 -13 -13 -13 -12 -12 -11 -10 -9 -8 -7 -7 -7 -6 -6 -5 -4 -4 -2 -2 -1 0 1 2 3 4 4 4 6 7 6 6 6 6 6
-13 -13 -13 -13 -14 -14 -14 -14 -14 -14 -14 -13 -13 -12 -11 -10 -9 -9 -8 -8 -7 -7 -7 -6 -5 -5 -4 -2 -1 -0 0 1 2 3 4 4 5 6 5 5 6 5 5
-13 -13 -13 -13 -13 -13 -14 -14 -14 -14 -14 -13 -13 -13 -12 -11 -10 -9 -9 -9 -8 -8 -7 -7 -6 -5 -4 -3 -3 -2 -0 0 1 1 3 4 4 5 5 5 5 6 5
-12 -13 -13 -13 -13 -14 -14 -15 -15 -15 -14 -14 -14 -13 -13 -12 -11 -10 -9 -9 -8 -8 -8 -8 -8 -7 -5 -4 -4 -3 -2 -1 -0 0 1 1 2 4 4 5 5 6 5
-12 -12 -13 -13 -14 -15 -15 -15 -15 -15 -15 -15 -14 -14 -13 -12 -11 -10 -9 -9 -9 -9 -8 -9 -8 -8 -7 -6 -5 -4 -4 -4 -3 -2 -1 -1 -0 1 3 3 4 5 4
-12 -13 -13 -14 -15 -15 -15 -15 -15 -15 -15 -15 -14 -14 -13 -12 -11 -10 -9 -9 -10 -10 -9 -9 -9 -9 -8 -7 -7 -6 -6 -6 -5 -4 -3 -1 0 1 1 2 3 3 3
-12 -13 -13 -15 -15 -15 -15 -15 -15 -15 -15 -14 -14 -13 -13 -13 -12 -11 -10 -10 -10 -10 -10 -10 -10 -10 -9 -9 -8 -8 -7 -7 -6 -5 -5 -3 -2 -1 -0 0 1 2 3
-12 -12 -14 -14 -15 -15 -15 -15 -15 -15 -15 -14 -14 -13 -13 -13 -12 -11 -11 -11 -11 -11 -10 -11 -10 -10 -10 -10 -10 -10 -10 -9 -8 -7 -6 -6 -5 -4 -3 -2 -1 0 1
-11 -12 -14 -14 -15 -15 -15 -15 -15 -15 -15 -14 -14 -13 -13 -13 -13 -12 -12 -12 -11 -11 -11 -12 -12 -12 -11 -11 -10 -11 -10 -11 -10 -10 -9 -8 -7 -7 -7 -6 -4 -3 -2
-12 -13 -14 -14 -15 -14 -15 -15 -14 -14 -14 -14 -14 -14 -13 -13 -13 -13 -12 -12 -12 -12 -13 -13 -13 -12 -12 -11 -11 -11 -11 -11 -11 -11 -11 -11 -10 -10 -9 -9 -7 -6 -5
-12 -13 -14 -15 -14 -14 -14 -14 -14 -14 -14 -14 -14 -14 -14 -13 -13 -13 -13 -13 -14 -13 -13 -14 -13 -13 -13 -13 -12 -12 -12 -13 -12 -13 -12 -12 -11 -10 -9 -9 -9 -8 -7
-13 -13 -14 -14 -14 -14 -14 -14 -14 -14 -14 -15 -15 -15 -14 -14 -14 -14 -14 -14 -14 -14 -14 -14 -14 -14 -14 -14 -14 -13 -13 -13 -13 -13 -13 -13 -12 -11 -10 -10 -10 -10 -9
-13 -14 -14 -14 -14 -14 -14 -14 -14 -14 -15 -15 -15 -15 -15 -14 -14 -14 -14 -15 -15 -15 -15 -15 -15 -15 -15 -15 -15 -15 -15 -14 -14 -14 -13 -13 -12 -12 -11 -11 -10 -10 -10
-13 -14 -14 -14 -14 -14 -14 -14 -14 -14 -14 -15 -16 -16 -15 -15 -14 -14 -14 -15 -15 -15 -15 -15 -16 -16 -16 -16 -16 -16 -16 -15 -15 -15 -14 -14 -13 -13 -12 -12 -11 -12 -11
-13 -13 -14 -14 -14 -14 -14 -14 -14 -14 -15 -15 -16 -16 -16 -15 -15 -15 -15 -15 -15 -15 -15 -15 -16 -16 -16 -16 -16 -16 -16 -16 -16 -16 -16 -15 -14 -14 -14 -13 -13 -13 -13
-12 -13 -14 -14 -14 -14 -14 -14 -14 -14 -15 -15 -15 -15 -15 -15 -15 -15 -15 -15 -15 -15 -15 -15 -16 -16 -16 -16 -16 -16 -16 -16 -16 -16 -16 -15 -15 -15 -14 -14 -14 -14 -14
-11 -11 -13 -13 -13 -14 -14 -15 -15 -14 -15 -15 -15 -15 -15 -15 -15 -15 -15 -15 -15 -15 -15 -15 -15 -16 -16 -16 -15 -16 -16 -16 -16 -16 -16 -15 -15 -15 -15 -15 -15 -14 -15
-10 -11 -13 -13 -13 -13 -14 -15 -15 -15 -15 -15 -15 -15 -15 -15 -15 -15 -15 -15 -15 -15 -15 -15 -15 -15 -15 -15 -15 -15 -15 -16 -16 -16 -16 -15 -15 -15 -15 -15 -15 -15 -15
-10 -10 -11 -13 -13 -13 -13 -14 -14 -15 -15 -15 -15 -15 -16 -16 -15 -15 -15 -15 -15 -14 -14 -14 -15 -15 -15 -15 -15 -15 -15 -15 -15 -15 -15 -15 -15 -15 -15 -15 -15 -15 -15
-9 -10 -11 -12 -13 -13 -13 -13 -14 -14 -15 -15 -15 -15 -15 -16 -15 -15 -14 -14 -14 -14 -14 -14 -14 -14 -15 -14 -14 -14 -14 -14 -14 -14 -14 -14 -14 -14 -15 -15 -15 -15 -15
-9 -9 -10 -11 -12 -13 -12 -13 -13 -13 -14 -14 -15 -15 -15 -15 -14 -14 -14 -14 -14 -14 -14 -14 -14 -14 -14 -14 -14 -14 -14 -14 -13 -13 -14 -14 -14 -14 -15 -15 -15 -15 -15
-9 -9 -9 -10 -11 -12 -12 -12 -12 -12 -13 -13 -13 -13 -13 -13 -13 -13 -13 -13 -13 -13 -13 -14 -13 -13 -13 -13 -13 -13 -13 -13 -13 -13 -13 -14 -14 -14 -14 -15 -15 -15 -15
-9 -9 -9 -9 -10 -11 -11 -11 -11 -11 -12 -12 -13 -13 -13 -13 -13 -13 -13 -13 -13 -13 -13 -13 -13 -13 -13 -13 -13 -13 -13 -13 -13 -13 -13 -13 -14 -14 -15 -15 -15 -15 -15
Wind_Speed
18 17 17 17 17 18 17 19 20 21 22 21 22 22 22 21 20 19 20 17 17 16 15 16 18 16 9 6 8 11 12 12 11 8 6 7 7 7 5 4 8 8 11
17 17 16 16 17 18 19 20 21 21 22 22 22 22 22 22 21 21 21 18 16 17 16 15 15 11 11 7 6 10 12 12 11 10 7 8 8 8 10 10 6 8 9
17 16 16 17 18 19 19 20 21 21 21 22 20 21 22 21 21 22 19 16 14 15 15 14 13 15 13 10 6 8 9 8 10 9 8 9 7 7 9 10 7 8 11
16 16 16 17 18 19 19 19 20 21 20 21 20 20 21 20 20 21 14 12 13 14 15 15 14 15 15 12 7 9 11 9 7 7 9 12 10 7 10 11 9 7 10
16 16 16 17 18 19 19 20 20 20 20 20 20 20 21 19 19 23 11 10 12 13 14 14 14 17 21 15 4 6 8 7 2 5 8 10 11 11 11 10 11 10 6
16 16 16 17 18 18 19 19 20 20 20 19 19 20 20 17 27 32 17 10 11 11 12 13 14 16 19 24 26 22 15 4 1 4 3 5 6 7 8 11 14 11 5
16 16 17 17 18 19 19 19 19 19 19 19 19 19 19 21 30 31 19 12 11 12 12 12 12 14 16 14 20 25 26 28 20 8 9 7 4 5 1 9 10 13 9
17 17 18 18 18 19 19 18 18 17 17 17 18 19 19 21 30 29 18 9 11 13 13 14 15 15 17 16 15 17 18 19 21 15 17 14 11 9 7 4 7 10 10
17 18 18 18 18 19 18 18 17 17 16 16 17 18 18 20 29 28 12 11 12 14 15 16 18 18 24 24 18 17 18 17 20 26 28 28 30 28 17 5 5 9 5
19 19 20 19 19 19 18 18 17 16 15 16 16 16 16 17 25 26 21 13 12 12 12 16 22 23 26 26 19 17 16 15 15 17 20 23 22 22 26 17 9 6 6
19 20 20 20 18 17 17 16 16 15 14 14 15 14 14 17 21 25 26 17 12 11 10 12 15 24 26 27 23 18 16 14 14 14 13 14 14 14 15 16 14 11 8
19 20 20 19 17 15 16 15 14 13 12 13 13 13 12 14 18 20 25 25 20 11 9 11 14 22 24 26 21 22 22 17 12 12 12 12 13 12 12 13 15 17 16
20 19 18 18 17 16 15 15 13 13 11 11 10 10 10 11 14 17 19 20 20 15 12 16 19 21 20 19 23 23 19 13 12 12 11 11 10 10 10 10 12 14 17
19 18 17 17 17 16 13 12 12 12 12 11 9 9 9 9 11 10 12 13 13 11 10 13 16 16 16 17 17 15 13 13 12 11 10 9 9 9 9 9 8 9 10
18 18 17 16 16 16 15 13 12 11 11 11 10 7 7 8 12 13 12 10 9 9 8 9 10 10 11 11 11 12 12 12 11 11 10 10 10 10 10 10 9 9 8
17 17 15 15 15 14 13 13 15 14 14 13 12 9 7 11 14 12 11 12 11 10 8 9 9 10 10 10 10 10 10 10 10 10 10 10 10 10 9 9 8 8 7
17 16 15 15 14 14 13 13 13 14 13 11 11 9 8 12 12 10 8 8 9 9 8 8 8 8 8 8 8 8 8 8 8 8 9 9 8 8 8 7 7 6 6
16 16 16 14 14 14 13 12 11 11 10 9 9 8 8 10 8 8 6 4 5 6 6 7 7 7 7 7 7 7 6 6 6 6 6 6 6 6 6 6 5 5 5
14 13 14 13 14 15 14 13 12 10 9 9 8 7 6 5 5 5 4 4 4 5 5 5 6 6 6 6 5 5 5 5 5 5 4 4 4 4 4 4 4 5 4
13 16 16 13 14 14 13 13 12 11 10 9 8 7 5 3 3 3 3 3 4 4 5 6 6 6 5 5 5 4 5 4 4 3 3 3 3 3 3 3 3 3 2
11 13 17 14 13 13 12 12 12 11 11 9 8 9 11 6 4 4 4 4 5 5 6 6 6 6 5 5 4 4 5 5 4 4 3 3 3 3 3 3 3 3 3
10 11 11 12 13 12 12 11 11 11 11 10 9 9 10 6 5 5 5 5 5 5 5 6 6 6 5 5 5 5 5 5 4 4 4 4 4 5 5 5 5 5 5
10 11 11 11 12 14 12 10 10 11 11 10 10 8 7 6 5 5 6 6 6 6 6 6 6 6 6 6 6 6 6 6 6 6 6 6 6 6 6 7 7 7 7
10 11 11 11 12 12 12 11 10 10 10 10 9 9 8 7 6 6 6 6 6 7 8 8 9 9 9 8 8 8 9 11 12 12 11 9 8 8 8 8 9 9 9
10 11 11 11 11 11 11 11 10 10 9 9 9 9 8 8 7 7 7 7 8 8 9 10 10 10 12 12 12 13 13 15 16 14 12 11 10 10 8 8 9 10 10
10 11 11 11 11 11 10 10 9 9 9 9 9 9 9 9 8 8 8 8 8 9 11 11 12 13 14 14 15 15 15 14 13 7 5 6 7 8 8 8 9 9 9
Wind_Direction
340 338 338 338 337 336 335 332 329 327 326 325 326 324 323 324 327 323 310 316 316 314 314 307 296 271 274 271 263 251 239 238 238 234 240 232 201 156 140 134 144 143 134
340 339 338 338 339 339 338 336 333 330 328 327 327 324 324 327 327 323 313 320 323 323 325 324 325 306 259 255 286 277 247 230 229 224 212 204 202 165 164 146 147 138 132
338 338 338 339 340 340 339 338 336 333 330 330 331 326 326 328 323 320 314 324 328 328 329 330 332 342 317 285 291 287 257 239 227 218 203 196 185 162 160 144 139 146 144
336 337 337 338 337 336 336 337 336 335 333 331 332 331 329 328 325 318 323 343 340 336 333 333 335 347 332 293 285 292 267 233 219 217 214 194 176 162 158 140 140 128 137
333 334 335 335 333 333 334 336 335 334 334 331 332 332 331 332 328 328 346 344 340 339 338 340 340 354 1 357 337 301 284 254 236 227 203 178 169 164 163 153 135 115 92
331 330 331 332 332 331 331 334 334 333 333 333 331 332 332 332 331 337 352 348 345 345 344 351 353 359 7 19 32 36 31 357 248 260 179 118 138 144 146 158 144 139 124
328 326 326 328 329 329 329 331 333 332 332 330 331 333 333 333 334 338 349 353 356 4 358 10 12 9 16 12 26 34 36 42 43 41 66 50 27 23 115 159 167 161 133
323 323 324 325 325 325 326 327 329 331 331 329 332 335 335 337 337 339 342 4 6 15 15 30 29 23 27 27 26 31 29 32 40 44 57 56 57 34 22 41 98 100 89
323 323 323 321 320 321 321 320 327 329 327 329 334 336 339 341 343 353 33 29 16 18 22 31 35 31 33 33 31 32 32 22 24 36 44 42 41 46 42 50 96 128 105
327 323 321 322 324 324 322 322 323 325 324 328 332 338 344 348 351 7 28 15 15 10 22 37 39 38 34 36 36 36 34 24 23 26 30 33 32 33 39 40 34 83 98
325 322 323 327 329 326 323 321 323 323 324 328 331 337 349 353 356 6 18 14 9 11 24 38 34 40 41 39 38 35 35 31 32 38 35 35 35 32 34 38 42 52 69
325 326 329 330 329 325 326 326 323 322 326 327 331 338 349 352 357 6 15 17 21 22 40 43 37 37 40 42 39 35 33 34 35 40 41 39 37 37 44 52 56 58 60
328 331 333 331 329 331 333 329 328 326 324 320 324 331 344 348 358 8 15 20 24 32 45 43 40 40 38 40 40 37 35 34 35 40 42 41 38 36 40 56 69 71 65
333 333 334 333 330 331 333 332 329 326 326 330 337 334 337 345 356 11 20 25 26 35 32 36 37 37 39 37 37 37 36 36 36 35 36 39 38 40 40 39 56 67 73
336 336 338 334 333 337 339 339 336 337 346 349 341 335 335 341 351 19 22 27 26 37 38 38 36 34 32 33 35 36 35 34 36 34 33 35 36 38 40 36 47 64 71
342 343 340 339 341 341 339 341 347 352 355 4 350 346 333 333 343 24 29 38 33 38 44 42 37 34 31 28 28 30 32 33 30 30 31 32 33 33 38 40 45 59 69
347 345 343 345 349 347 346 344 341 347 357 13 2 359 343 335 346 32 40 45 46 47 53 50 43 35 30 27 26 25 26 27 25 28 29 26 28 30 33 37 40 51 61
351 352 350 352 353 351 350 346 344 346 353 6 10 8 359 339 1 40 42 50 55 52 47 43 40 34 28 22 21 20 17 15 18 15 20 23 21 23 27 29 32 36 47
356 357 353 356 357 360 2 358 356 358 6 8 11 12 13 1 22 43 31 30 34 33 26 22 20 18 17 10 4 5 5 5 10 358 360 8 13 12 14 12 15 21 21
359 359 360 0 1 6 8 7 5 6 13 12 13 6 356 351 7 18 10 358 353 356 357 356 354 350 350 349 342 339 337 341 350 351 350 345 341 338 335 333 333 342 349
355 359 3 4 5 8 7 8 8 11 13 12 10 3 14 22 5 355 342 334 333 335 339 341 341 338 333 327 324 320 319 322 325 324 316 304 290 285 286 286 286 283 283
353 358 2 6 3 7 4 6 7 11 12 10 8 9 9 8 355 346 340 334 331 326 324 326 324 325 323 316 311 306 302 301 300 291 279 266 257 256 258 260 261 258 255
354 356 1 4 2 6 3 1 4 6 4 4 3 2 1 357 344 333 328 326 323 317 315 314 311 313 313 303 289 285 286 287 284 279 270 262 253 249 248 248 247 248 245
357 357 357 360 357 1 3 357 356 357 354 353 354 352 347 339 327 314 307 305 304 302 300 299 297 296 296 293 289 283 279 277 273 264 257 256 256 254 254 253 251 250 250
359 356 356 356 353 352 356 355 350 347 342 340 339 336 332 326 316 305 296 291 288 288 288 289 288 286 287 287 286 286 285 284 281 269 251 244 247 249 253 257 254 251 247
357 356 355 354 352 347 344 342 340 335 330 327 324 320 317 314 309 302 295 288 285 283 283 281 279 277 277 279 280 282 287 293 303 290 277 258 249 249 250 248 249 246 248
Height
1533 1527 1521 1516 1511 1505 1500 1494 1488 1481 1475 1469 1462 1456 1451 1446 1441 1435 1429 1425 1417 1411 1405 1400 1397 1397 1396 1396 1396 1397 1399 1399 1396 1401 1406 1408 1409 1411 1414 1416 1419 1423 1427
1531 1525 1520 1515 1509 1503 1497 1491 1485 1478 1472 1466 1460 1452 1446 1441 1436 1431 1424 1421 1413 1407 1400 1394 1391 1390 1391 1390 1390 1390 1390 1391 1392 1394 1399 1401 1403 1406 1409 1411 1415 1421 1425
1529 1524 1519 1513 1507 1501 1495 1489 1482 1476 1469 1463 1457 1450 1444 1438 1432 1426 1420 1417 1410 1404 1399 1393 1388 1385 1384 1384 1383 1383 1384 1384 1385 1388 1392 1395 1397 1400 1404 1407 1412 1418 1424
1528 1523 1517 1511 1505 1499 1493 1486 1480 1474 1467 1460 1454 1448 1442 1436 1430 1422 1418 1412 1407 1401 1396 1390 1384 1378 1376 1377 1377 1378 1378 1379 1379 1379 1384 1390 1392 1394 1399 1402 1408 1415 1421
1526 1521 1515 1509 1503 1497 1491 1485 1478 1472 1465 1458 1452 1447 1441 1435 1428 1422 1417 1411 1406 1400 1395 1390 1384 1379 1374 1372 1372 1371 1371 1373 1373 1373 1377 1381 1383 1388 1394 1398 1404 1410 1420
1525 1519 1513 1507 1501 1494 1489 1483 1476 1470 1463 1456 1450 1445 1440 1434 1428 1422 1417 1411 1405 1400 1395 1390 1384 1380 1375 1369 1366 1364 1365 1366 1367 1372 1371 1373 1378 1383 1387 1395 1401 1409 1417
1523 1517 1511 1504 1498 1492 1487 1481 1475 1468 1461 1455 1449 1444 1438 1433 1427 1421 1416 1412 1407 1402 1397 1392 1387 1382 1378 1373 1368 1365 1363 1362 1365 1368 1364 1368 1372 1376 1384 1391 1399 1405 1411
1520 1514 1509 1502 1496 1490 1485 1479 1473 1467 1460 1454 1449 1443 1438 1432 1426 1420 1415 1412 1408 1403 1399 1396 1390 1386 1382 1377 1373 1369 1365 1364 1365 1364 1359 1366 1369 1374 1379 1385 1392 1398 1405
1519 1512 1506 1499 1493 1487 1482 1477 1472 1466 1460 1455 1450 1444 1438 1433 1426 1420 1417 1414 1410 1406 1403 1400 1395 1391 1386 1381 1377 1373 1369 1369 1367 1363 1359 1361 1364 1372 1380 1387 1392 1396 1402
1517 1511 1504 1497 1491 1485 1479 1474 1469 1465 1460 1455 1450 1445 1440 1435 1429 1425 1420 1416 1413 1409 1407 1405 1401 1396 1392 1386 1383 1381 1378 1377 1375 1372 1369 1369 1372 1376 1380 1384 1388 1394 1401
1516 1508 1501 1495 1489 1483 1477 1472 1468 1463 1459 1454 1450 1445 1441 1436 1431 1427 1423 1418 1416 1413 1410 1408 1406 1401 1396 1392 1388 1387 1386 1384 1381 1380 1380 1379 1380 1380 1382 1385 1390 1395 1401
1514 1507 1500 1492 1487 1482 1476 1471 1467 1462 1458 1454 1450 1446 1442 1438 1434 1430 1427 1423 1418 1415 1413 1411 1409 1405 1402 1398 1395 1393 1390 1389 1388 1386 1386 1385 1386 1387 1388 1391 1394 1397 1400
1512 1505 1498 1491 1486 1481 1476 1471 1466 1461 1457 1453 1449 1446 1443 1440 1437 1433 1430 1427 1422 1418 1416 1414 1411 1408 1406 1404 1402 1400 1398 1397 1396 1396 1396 1395 1395 1396 1397 1397 1399 1401 1404
1510 1503 1497 1491 1485 1480 1475 1470 1465 1460 1455 1451 1448 1446 1444 1442 1439 1435 1432 1429 1426 1422 1419 1417 1415 1413 1411 1409 1407 1406 1404 1403 1402 1403 1403 1402 1402 1402 1402 1403 1404 1404 1408
1508 1502 1496 1491 1486 1480 1474 1469 1464 1459 1455 1451 1447 1445 1444 1443 1440 1437 1434 1431 1428 1425 1423 1421 1419 1417 1415 1414 1412 1411 1410 1409 1408 1408 1408 1406 1404 1404 1403 1405 1407 1409 1414
1508 1502 1496 1491 1485 1479 1473 1468 1464 1460 1455 1450 1446 1445 1444 1444 1441 1438 1435 1432 1430 1428 1426 1425 1423 1421 1420 1418 1416 1415 1413 1412 1411 1410 1409 1407 1406 1407 1408 1410 1412 1414 1417
1509 1503 1498 1492 1485 1478 1473 1468 1463 1459 1455 1451 1446 1444 1444 1443 1442 1440 1437 1434 1432 1431 1430 1428 1427 1425 1424 1423 1421 1419 1417 1416 1415 1413 1412 1411 1412 1413 1413 1414 1416 1418 1419
1511 1505 1499 1493 1486 1480 1474 1469 1464 1459 1455 1451 1447 1445 1443 1443 1443 1441 1439 1438 1437 1435 1433 1433 1431 1430 1428 1427 1425 1423 1421 1420 1419 1419 1418 1417 1416 1416 1417 1418 1420 1420 1421
1513 1506 1501 1495 1489 1483 1477 1471 1466 1462 1458 1454 1450 1447 1445 1444 1443 1442 1441 1441 1440 1438 1437 1436 1434 1433 1431 1429 1427 1426 1425 1424 1422 1421 1420 1419 1418 1418 1419 1420 1421 1422 1422
1514 1508 1503 1497 1492 1485 1479 1473 1468 1465 1461 1457 1454 1451 1449 1447 1446 1445 1443 1442 1441 1440 1439 1437 1435 1434 1432 1430 1428 1426 1425 1424 1423 1422 1421 1420 1420 1420 1421 1422 1422 1422 1423
1517 1510 1505 1499 1494 1488 1482 1477 1472 1468 1464 1460 1457 1454 1451 1449 1448 1446 1445 1444 1442 1441 1440 1438 1436 1434 1432 1430 1428 1426 1425 1424 1423 1422 1422 1421 1422 1422 1422 1422 1422 1422 1423
1519 1513 1507 1502 1497 1491 1485 1480 1475 1471 1467 1463 1460 1456 1453 1451 1449 1447 1446 1444 1443 1441 1440 1438 1436 1434 1432 1430 1429 1427 1426 1425 1424 1423 1422 1422 1421 1421 1421 1421 1421 1422 1422
1521 1516 1510 1505 1500 1495 1488 1483 1478 1474 1470 1466 1463 1459 1455 1452 1450 1448 1446 1444 1443 1441 1440 1438 1436 1434 1431 1430 1428 1427 1426 1425 1423 1422 1422 1421 1420 1420 1419 1419 1419 1420 1420
1524 1518 1513 1508 1503 1498 1492 1486 1481 1476 1472 1468 1464 1460 1457 1453 1450 1448 1446 1444 1442 1441 1439 1437 1435 1433 1431 1429 1428 1426 1424 1423 1421 1420 1419 1418 1417 1417 1416 1415 1416 1416 1417
1527 1521 1516 1510 1505 1500 1494 1489 1484 1479 1474 1470 1466 1462 1458 1454 1451 1448 1445 1443 1441 1438 1436 1435 1432 1431 1429 1427 1425 1424 1422 1420 1418 1417 1415 1414 1413 1412 1411 1410 1410 1411 1412
1529 1524 1519 1513 1508 1502 1497 1491 1486 1481 1476 1471 1466 1462 1458 1454 1451 1447 1444 1441 1438 1436 1433 1431 1429 1427 1426 1424 1422 1421 1419 1417 1416 1414 1413 1411 1409 1408 1407 1406 1406 1406 1406